TimeCST,TemperatureF,Dew PointF,Humidity,Sea Level PressureIn,VisibilityMPH,Wind Direction,Wind SpeedMPH,Gust SpeedMPH,PrecipitationIn,Events,Conditions,WindDirDegrees,DateUTC
12:58 AM,20.1,19.9,99,30.34,10.0,Calm,Calm,-,N/A,,Clear,0,2013-03-07 06:58:00
1:58 AM,19.4,19.2,99,30.35,10.0,East,3.5,-,N/A,,Clear,100,2013-03-07 07:58:00
2:58 AM,19.2,18.9,98,30.35,10.0,East,2.3,-,N/A,,Clear,100,2013-03-07 08:58:00
3:58 AM,18.5,18.3,99,30.34,10.0,ESE,8.1,-,N/A,,Clear,110,2013-03-07 09:58:00
4:58 AM,20.5,19.4,96,30.33,10.0,ESE,8.1,-,N/A,,Clear,110,2013-03-07 10:58:00
5:58 AM,20.3,18.9,94,30.34,10.0,East,4.6,-,N/A,,Clear,90,2013-03-07 11:58:00
6:58 AM,19.2,18.0,95,30.35,10.0,East,6.9,-,N/A,,Clear,100,2013-03-07 12:58:00
7:58 AM,22.3,19.4,89,30.36,10.0,East,5.8,-,N/A,,Clear,90,2013-03-07 13:58:00
8:58 AM,27.5,21.6,78,30.35,10.0,ESE,6.9,-,N/A,,Clear,110,2013-03-07 14:58:00
9:58 AM,31.8,24.3,74,30.34,10.0,East,10.4,-,N/A,,Clear,100,2013-03-07 15:58:00
10:58 AM,35.8,26.4,69,30.34,10.0,East,5.8,-,N/A,,Clear,100,2013-03-07 16:58:00
11:58 AM,38.8,26.2,61,30.33,10.0,East,4.6,-,N/A,,Clear,100,2013-03-07 17:58:00
12:58 PM,39.6,28.2,64,30.30,10.0,East,6.9,-,N/A,,Clear,80,2013-03-07 18:58:00
1:58 PM,41.9,29.1,61,30.27,10.0,East,6.9,-,N/A,,Clear,80,2013-03-07 19:58:00
2:58 PM,41.7,30.0,63,30.25,10.0,East,8.1,-,N/A,,Clear,90,2013-03-07 20:58:00
3:58 PM,42.3,30.2,62,30.23,10.0,East,8.1,-,N/A,,Clear,90,2013-03-07 21:58:00
4:58 PM,42.3,30.6,63,30.21,10.0,East,8.1,-,N/A,,Clear,90,2013-03-07 22:58:00
5:58 PM,42.1,30.2,63,30.21,10.0,East,6.9,-,N/A,,Clear,90,2013-03-07 23:58:00
6:58 PM,40.5,29.8,66,30.22,10.0,East,8.1,-,N/A,,Clear,90,2013-03-08 00:58:00
7:58 PM,39.4,29.8,69,30.23,10.0,East,6.9,-,N/A,,Clear,100,2013-03-08 01:58:00
8:58 PM,39.4,29.5,68,30.23,10.0,East,10.4,-,N/A,,Clear,100,2013-03-08 02:58:00
9:58 PM,37.9,29.3,71,30.24,10.0,East,8.1,-,N/A,,Clear,100,2013-03-08 03:58:00
10:58 PM,36.0,29.5,77,30.25,10.0,East,6.9,-,N/A,,Clear,100,2013-03-08 04:58:00
11:58 PM,34.5,29.1,81,30.25,10.0,ESE,6.9,-,N/A,,Clear,110,2013-03-08 05:58:00